FLOCK 4P-4 (44811 NORAD) Tracking and Keplerian Element Data

This shows tracking and keplerian element data for the satellite.

Feedback or suggestion? Click here.




ElementValue
Catalog44811
NameFLOCK 4P-4
Epoch Orbit854
Epoch Day22.44438939
Epoch Year2020
RAAN84.2671
Inclination97.5172
Eccentricity0.0013606
Argument of Perigee47.5331
Mean Anonmoly312.7051
Mean Motion15.19521443
Decay Rate6.58E-06
L11 44811U 19081H 20022.44438939 .00000658 00000-0 34191-4 0 9998
L22 44811 97.5172 84.2671 0013606 47.5331 312.7051 15.19521443 8549

Live tracking and technical data element details for FLOCK 4P-4 (NORAD 44811). FLOCK 4P-4 can be tracked NOW for your location showing map with azimuth and elevation plus other details from your city location.

Track the satellite on the map from your city or location and see movement details for azimuth, elevation, latitude, longitude, range, height, and movement on the map or in text.







IsCatalogInMostPopularTable: catalog: 44811, numindb: 8
Update: records affected: 1



GetName: 44811 FLOCK 4P-4

Hit Count: updated at: Fri, 24 Jan 2020 13:32:28 GMT